Tracking 17925 objects as of 20-January-2017
HD Live streaming from Space Station
objects crossing your sky now

GSAT 3 (EDUSAT)

Track GSAT 3 (EDUSAT) now!
GSAT 3 (EDUSAT) is classified as:


NORAD ID: 28417
Int'l Code: 2004-036A
Perigee: 36,062.8 km
Apogee: 36,091.9 km
Inclination: 4.9 °
Period: 1,450.6 minutes
Semi major axis: 42448 km
RCS: 15.8866 m2 (large)
Launch date: September 20, 2004
Source: India (IND)
Launch site: SIRHARIKOTA (SRI)

Interactive education for remote areas of India; 6 C-band and 6 Ku-band transponders; first satellite dedicated to education.
Your satellite tracking list
Your tracking list is empty





NASA's NSSDC Master Catalog

Two Line Element Set (TLE):
1 28417U 04036A   17020.09283888 -.00000072  00000-0  00000+0 0  9990
2 28417   4.9146  62.7606 0003428 175.6949 289.9215  0.99268681 45007
Source of the keplerian elements: AFSPC